Time,TemperatureF,DewpointF,PressureIn,WindDirection,WindDirectionDegrees,WindSpeedMPH,WindSpeedGustMPH,Humidity,HourlyPrecipIn,Conditions,Clouds,dailyrainin,SolarRadiationWatts/m^2,SoftwareType,DateUTC
2013-03-23 00:00:00,29.3,25.9,29.79,SW,235,4.5,6.4,87,0.00,-SN,BKN,0.00,0.0,WeatherDisplay:10.37,2013-03-23 04:00:00,
2013-03-23 00:05:00,29.1,26.0,29.79,WSW,257,5.4,8.1,88,0.00,-SN,BKN,0.00,0.0,WeatherDisplay:10.37,2013-03-23 04:05:00,
2013-03-23 00:10:00,29.3,25.9,29.78,WSW,253,4.2,5.8,87,0.00,-SN,BKN,0.00,0.0,WeatherDisplay:10.37,2013-03-23 04:10:00,
2013-03-23 00:15:00,29.1,25.7,29.78,SW,234,5.6,6.9,87,0.00,-SN,BKN,0.00,0.0,WeatherDisplay:10.37,2013-03-23 04:15:00,
2013-03-23 00:20:00,29.1,25.5,29.78,WSW,252,6.2,8.1,86,0.00,-SN,BKN,0.00,0.0,WeatherDisplay:10.37,2013-03-23 04:20:00,
2013-03-23 00:25:00,28.9,25.3,29.78,WSW,258,6.3,8.1,86,0.00,-SN,BKN,0.00,0.0,WeatherDisplay:10.37,2013-03-23 04:25:00,
2013-03-23 00:30:00,28.9,25.3,29.78,SW,227,5.8,6.9,86,0.00,-SN,BKN,0.00,0.0,WeatherDisplay:10.37,2013-03-23 04:30:00,
2013-03-23 00:35:00,28.9,25.3,29.78,SSW,210,7.6,9.2,86,0.00,-SN,BKN,0.00,0.0,WeatherDisplay:10.37,2013-03-23 04:35:00,
2013-03-23 00:40:00,29.1,25.5,29.78,SW,214,4.5,6.2,86,0.00,-SN,BKN,0.00,0.0,WeatherDisplay:10.37,2013-03-23 04:40:00,
2013-03-23 00:45:00,28.9,25.3,29.78,SW,227,7.2,9.2,86,0.00,-SN,BKN,0.00,0.0,WeatherDisplay:10.37,2013-03-23 04:45:00,
2013-03-23 00:50:00,28.8,25.1,29.78,SW,227,6.8,9.2,86,0.00,-SN,BKN,0.00,0.0,WeatherDisplay:10.37,2013-03-23 04:50:00,
2013-03-23 00:55:00,29.1,25.5,29.78,SW,236,5.9,9.2,86,0.00,-SN,BKN,0.00,0.0,WeatherDisplay:10.37,2013-03-23 04:55:00,
2013-03-23 01:00:00,29.1,25.5,29.78,WSW,240,5.6,8.1,86,0.00,-SN,BKN,0.00,0.0,WeatherDisplay:10.37,2013-03-23 05:00:00,
2013-03-23 01:05:00,29.3,25.6,29.79,SW,226,4.4,7.0,86,0.00,-SN,BKN,0.00,0.0,WeatherDisplay:10.37,2013-03-23 05:05:00,
2013-03-23 01:10:00,29.3,25.6,29.78,West,278,4.3,5.8,86,0.00,-SN,BKN,0.00,0.0,WeatherDisplay:10.37,2013-03-23 05:10:00,
2013-03-23 01:15:00,28.9,25.3,29.78,SW,216,5.0,5.8,86,0.00,-SN,BKN,0.00,0.0,WeatherDisplay:10.37,2013-03-23 05:15:00,
2013-03-23 01:20:00,29.1,25.5,29.78,SW,216,4.4,7.5,86,0.00,OVC,BKN,0.00,0.0,WeatherDisplay:10.37,2013-03-23 05:20:00,
2013-03-23 01:25:00,28.6,24.9,29.78,SW,227,6.3,9.2,86,0.00,OVC,BKN,0.00,0.0,WeatherDisplay:10.37,2013-03-23 05:25:00,
2013-03-23 01:30:00,28.8,25.1,29.78,SW,220,6.7,9.2,86,0.00,OVC,BKN,0.00,0.0,WeatherDisplay:10.37,2013-03-23 05:30:00,
2013-03-23 01:35:00,28.9,25.3,29.78,SW,223,5.4,8.1,86,0.00,OVC,BKN,0.00,0.0,WeatherDisplay:10.37,2013-03-23 05:35:00,
2013-03-23 01:40:00,28.8,25.4,29.79,SW,219,7.1,10.4,87,0.00,OVC,BKN,0.00,0.0,WeatherDisplay:10.37,2013-03-23 05:40:00,
2013-03-23 01:45:00,28.8,25.1,29.79,SSW,210,6.5,9.2,86,0.00,OVC,BKN,0.00,0.0,WeatherDisplay:10.37,2013-03-23 05:45:00,
2013-03-23 01:50:00,28.9,25.3,29.78,WSW,255,5.6,8.1,86,0.00,OVC,BKN,0.00,0.0,WeatherDisplay:10.37,2013-03-23 05:50:00,
2013-03-23 01:55:00,28.8,25.1,29.78,WSW,249,6.9,8.1,86,0.00,OVC,BKN,0.00,0.0,WeatherDisplay:10.37,2013-03-23 05:55:00,
2013-03-23 02:00:00,29.1,25.5,29.78,WSW,253,3.9,6.9,86,0.00,OVC,BKN,0.00,0.0,WeatherDisplay:10.37,2013-03-23 06:00:00,
2013-03-23 02:05:00,28.8,24.8,29.78,SW,217,6.1,8.1,85,0.00,OVC,BKN,0.00,0.0,WeatherDisplay:10.37,2013-03-23 06:05:00,
2013-03-23 02:10:00,28.9,25.0,29.78,West,275,4.7,7.4,85,0.00,OVC,BKN,0.00,0.0,WeatherDisplay:10.37,2013-03-23 06:10:00,
2013-03-23 02:15:00,28.6,24.6,29.78,WSW,240,5.3,8.1,85,0.00,OVC,BKN,0.00,0.0,WeatherDisplay:10.37,2013-03-23 06:15:00,
2013-03-23 02:20:00,28.8,24.8,29.78,SW,218,4.9,6.1,85,0.00,OVC,BKN,0.00,0.0,WeatherDisplay:10.37,2013-03-23 06:20:00,
2013-03-23 02:25:00,28.8,24.5,29.78,SW,226,4.9,6.9,84,0.00,OVC,BKN,0.00,0.0,WeatherDisplay:10.37,2013-03-23 06:25:00,
2013-03-23 02:30:00,29.1,24.9,29.78,SW,231,5.4,6.9,84,0.00,OVC,BKN,0.00,0.0,WeatherDisplay:10.37,2013-03-23 06:30:00,
2013-03-23 02:35:00,29.3,25.1,29.78,WSW,247,4.9,9.4,84,0.00,OVC,BKN,0.00,0.0,WeatherDisplay:10.37,2013-03-23 06:35:00,
2013-03-23 02:40:00,28.8,24.5,29.78,SW,232,5.7,6.9,84,0.00,OVC,BKN,0.00,0.0,WeatherDisplay:10.37,2013-03-23 06:40:00,
2013-03-23 02:45:00,28.9,24.7,29.78,WSW,255,6.7,8.1,84,0.00,OVC,BKN,0.00,0.0,WeatherDisplay:10.37,2013-03-23 06:45:00,
2013-03-23 02:50:00,28.8,24.5,29.78,South,189,6.5,10.4,84,0.00,OVC,BKN,0.00,0.0,WeatherDisplay:10.37,2013-03-23 06:50:00,
2013-03-23 02:55:00,28.8,24.5,29.78,South,185,5.5,10.8,84,0.00,OVC,BKN,0.00,0.0,WeatherDisplay:10.37,2013-03-23 06:55:00,
2013-03-23 03:00:00,29.1,24.9,29.78,SW,216,5.8,8.1,84,0.00,OVC,BKN,0.00,0.0,WeatherDisplay:10.37,2013-03-23 07:00:00,
2013-03-23 03:05:00,29.1,24.9,29.78,WSW,244,5.3,8.1,84,0.00,OVC,BKN,0.00,0.0,WeatherDisplay:10.37,2013-03-23 07:05:00,
2013-03-23 03:10:00,28.9,24.7,29.78,SW,234,6.9,8.1,84,0.00,OVC,BKN,0.00,0.0,WeatherDisplay:10.37,2013-03-23 07:10:00,
2013-03-23 03:15:00,29.1,24.6,29.78,WSW,255,5.4,8.1,83,0.00,OVC,BKN,0.00,0.0,WeatherDisplay:10.37,2013-03-23 07:15:00,
2013-03-23 03:20:00,29.1,24.6,29.78,South,184,4.4,8.1,83,0.00,BKN,,0.00,0.0,WeatherDisplay:10.37,2013-03-23 07:20:00,
2013-03-23 03:25:00,28.9,24.4,29.78,SW,217,5.2,6.9,83,0.00,BKN,,0.00,0.0,WeatherDisplay:10.37,2013-03-23 07:25:00,
2013-03-23 03:30:00,29.1,24.6,29.78,WSW,240,5.3,9.2,83,0.00,BKN,,0.00,0.0,WeatherDisplay:10.37,2013-03-23 07:30:00,
2013-03-23 03:35:00,29.1,24.3,29.78,SW,227,5.2,8.1,82,0.00,BKN,,0.00,0.0,WeatherDisplay:10.37,2013-03-23 07:35:00,
2013-03-23 03:40:00,29.1,24.3,29.77,WSW,237,5.3,8.1,82,0.00,BKN,,0.00,0.0,WeatherDisplay:10.37,2013-03-23 07:40:00,
2013-03-23 03:45:00,29.3,24.5,29.78,SW,236,5.2,8.1,82,0.00,BKN,,0.00,0.0,WeatherDisplay:10.37,2013-03-23 07:45:00,
2013-03-23 03:50:00,29.1,24.3,29.77,SW,236,5.1,8.4,82,0.00,BKN,,0.00,0.0,WeatherDisplay:10.37,2013-03-23 07:50:00,
2013-03-23 03:55:00,28.8,24.2,29.77,SSW,206,7.1,9.2,83,0.00,BKN,,0.00,0.0,WeatherDisplay:10.37,2013-03-23 07:55:00,
2013-03-23 04:00:00,29.1,24.6,29.77,WSW,253,6.0,9.2,83,0.00,BKN,,0.00,0.0,WeatherDisplay:10.37,2013-03-23 08:00:00,
2013-03-23 04:05:00,29.3,24.5,29.77,West,279,5.5,9.2,82,0.00,BKN,,0.00,0.0,WeatherDisplay:10.37,2013-03-23 08:05:00,
2013-03-23 04:10:00,29.1,24.6,29.77,WSW,240,5.4,6.9,83,0.00,BKN,,0.00,0.0,WeatherDisplay:10.37,2013-03-23 08:10:00,
2013-03-23 04:15:00,29.1,24.9,29.77,WSW,253,5.5,8.1,84,0.00,BKN,,0.00,0.0,WeatherDisplay:10.37,2013-03-23 08:15:00,
2013-03-23 04:20:00,29.1,24.9,29.77,West,276,4.7,6.0,84,0.00,BKN,,0.00,0.0,WeatherDisplay:10.37,2013-03-23 08:20:00,
2013-03-23 04:25:00,28.8,24.5,29.77,WSW,243,5.4,9.2,84,0.00,BKN,,0.00,0.0,WeatherDisplay:10.37,2013-03-23 08:25:00,
2013-03-23 04:30:00,28.2,24.0,29.77,WSW,244,5.2,6.9,84,0.00,BKN,,0.00,0.0,WeatherDisplay:10.37,2013-03-23 08:30:00,
2013-03-23 04:35:00,28.4,24.2,29.77,West,262,4.8,8.9,84,0.00,BKN,,0.00,0.0,WeatherDisplay:10.37,2013-03-23 08:35:00,
2013-03-23 04:40:00,28.2,24.0,29.77,WSW,255,4.8,6.9,84,0.00,BKN,,0.00,0.0,WeatherDisplay:10.37,2013-03-23 08:40:00,
2013-03-23 04:45:00,28.2,24.0,29.77,SW,232,4.6,6.9,84,0.00,BKN,,0.00,0.0,WeatherDisplay:10.37,2013-03-23 08:45:00,
2013-03-23 04:50:00,28.4,24.5,29.77,SSW,209,5.5,6.9,85,0.00,BKN,,0.00,0.0,WeatherDisplay:10.37,2013-03-23 08:50:00,
2013-03-23 04:55:00,28.4,24.5,29.77,West,276,4.0,5.9,85,0.00,BKN,,0.00,0.0,WeatherDisplay:10.37,2013-03-23 08:55:00,
2013-03-23 05:00:00,28.8,24.5,29.77,SW,229,4.0,5.8,84,0.00,BKN,,0.00,0.0,WeatherDisplay:10.37,2013-03-23 09:00:00,
2013-03-23 05:05:00,28.8,24.5,29.78,SW,227,3.8,4.6,84,0.00,BKN,,0.00,0.0,WeatherDisplay:10.37,2013-03-23 09:05:00,
2013-03-23 05:10:00,28.8,24.5,29.78,WSW,240,4.6,5.8,84,0.00,BKN,,0.00,0.0,WeatherDisplay:10.37,2013-03-23 09:10:00,
2013-03-23 05:15:00,28.4,24.2,29.78,SSW,205,4.0,5.8,84,0.00,BKN,,0.00,0.0,WeatherDisplay:10.37,2013-03-23 09:15:00,
2013-03-23 05:20:00,28.8,24.5,29.78,WSW,255,4.8,5.8,84,0.00,OVC,BKN,0.00,0.0,WeatherDisplay:10.37,2013-03-23 09:20:00,
2013-03-23 05:25:00,28.6,24.4,29.78,WSW,252,5.7,8.1,84,0.00,OVC,BKN,0.00,0.0,WeatherDisplay:10.37,2013-03-23 09:25:00,
2013-03-23 05:30:00,28.2,24.0,29.78,SW,228,6.0,6.9,84,0.00,OVC,BKN,0.00,0.0,WeatherDisplay:10.37,2013-03-23 09:30:00,
2013-03-23 05:35:00,28.6,24.4,29.78,West,262,5.2,6.9,84,0.00,OVC,BKN,0.00,0.0,WeatherDisplay:10.37,2013-03-23 09:35:00,
2013-03-23 05:40:00,28.8,24.5,29.78,SSW,193,4.8,6.9,84,0.00,OVC,BKN,0.00,0.0,WeatherDisplay:10.37,2013-03-23 09:40:00,
2013-03-23 05:45:00,28.8,24.5,29.78,SW,236,3.8,5.8,84,0.00,OVC,BKN,0.00,0.0,WeatherDisplay:10.37,2013-03-23 09:45:00,
2013-03-23 05:50:00,28.6,24.4,29.78,WSW,243,5.0,8.1,84,0.00,OVC,BKN,0.00,0.0,WeatherDisplay:10.37,2013-03-23 09:50:00,
2013-03-23 05:55:00,28.8,24.5,29.78,West,274,3.5,6.7,84,0.00,OVC,BKN,0.00,0.0,WeatherDisplay:10.37,2013-03-23 09:55:00,
2013-03-23 06:00:00,28.6,24.4,29.78,West,274,3.5,5.8,84,0.00,OVC,BKN,0.00,0.0,WeatherDisplay:10.37,2013-03-23 10:00:00,
2013-03-23 06:05:00,28.6,24.6,29.78,WSW,240,4.5,6.2,85,0.00,OVC,BKN,0.00,0.0,WeatherDisplay:10.37,2013-03-23 10:05:00,
2013-03-23 06:10:00,28.6,24.6,29.78,WNW,284,5.7,9.5,85,0.00,OVC,BKN,0.00,0.0,WeatherDisplay:10.37,2013-03-23 10:10:00,
2013-03-23 06:15:00,28.8,24.8,29.78,West,259,4.0,5.8,85,0.00,OVC,BKN,0.00,0.0,WeatherDisplay:10.37,2013-03-23 10:15:00,
2013-03-23 06:20:00,28.8,24.8,29.78,West,270,6.9,10.4,85,0.00,BKN,,0.00,0.0,WeatherDisplay:10.37,2013-03-23 10:20:00,
2013-03-23 06:25:00,29.1,24.9,29.78,WSW,255,5.4,9.2,84,0.00,BKN,,0.00,0.0,WeatherDisplay:10.37,2013-03-23 10:25:00,
2013-03-23 06:30:00,29.3,25.1,29.78,SW,224,4.0,6.0,84,0.00,BKN,,0.00,0.0,WeatherDisplay:10.37,2013-03-23 10:30:00,
2013-03-23 06:35:00,29.1,24.9,29.79,WNW,283,4.9,10.5,84,0.00,BKN,,0.00,0.0,WeatherDisplay:10.37,2013-03-23 10:35:00,
2013-03-23 06:40:00,29.3,25.1,29.79,SW,236,5.1,6.9,84,0.00,BKN,,0.00,0.0,WeatherDisplay:10.37,2013-03-23 10:40:00,
2013-03-23 06:45:00,29.3,25.1,29.79,WSW,249,4.6,8.1,84,0.00,BKN,,0.00,0.0,WeatherDisplay:10.37,2013-03-23 10:45:00,
2013-03-23 06:50:00,29.5,25.2,29.79,West,266,4.1,7.1,84,0.00,OVC,BKN,0.00,0.0,WeatherDisplay:10.37,2013-03-23 10:50:00,
2013-03-23 06:55:00,29.3,25.1,29.80,WSW,241,4.9,6.9,84,0.00,OVC,BKN,0.00,0.0,WeatherDisplay:10.37,2013-03-23 10:55:00,
2013-03-23 07:00:00,29.1,24.9,29.80,West,263,5.0,5.8,84,0.00,OVC,BKN,0.00,0.0,WeatherDisplay:10.37,2013-03-23 11:00:00,
2013-03-23 07:05:00,29.3,25.4,29.80,SW,234,5.3,9.2,85,0.00,OVC,BKN,0.00,0.0,WeatherDisplay:10.37,2013-03-23 11:05:00,
2013-03-23 07:10:00,29.1,25.2,29.80,SW,229,6.1,8.1,85,0.00,OVC,BKN,0.00,0.0,WeatherDisplay:10.37,2013-03-23 11:10:00,
2013-03-23 07:15:00,29.5,25.2,29.80,SW,234,4.3,5.8,84,0.00,OVC,BKN,0.00,0.0,WeatherDisplay:10.37,2013-03-23 11:15:00,
2013-03-23 07:20:00,29.5,25.2,29.80,WSW,249,3.5,5.8,84,0.00,-SN,BKN,0.00,0.0,WeatherDisplay:10.37,2013-03-23 11:20:00,
2013-03-23 07:25:00,29.7,25.7,29.80,West,271,4.3,7.1,85,0.00,-SN,BKN,0.00,0.0,WeatherDisplay:10.37,2013-03-23 11:25:00,
2013-03-23 07:30:00,29.5,25.2,29.80,WSW,253,3.2,6.6,84,0.00,-SN,BKN,0.00,0.0,WeatherDisplay:10.37,2013-03-23 11:30:00,
2013-03-23 07:35:00,29.5,25.2,29.80,West,270,4.5,8.1,84,0.00,-SN,BKN,0.00,0.0,WeatherDisplay:10.37,2013-03-23 11:35:00,
2013-03-23 07:40:00,29.5,25.2,29.81,SW,236,4.8,8.1,84,0.00,-SN,BKN,0.00,0.0,WeatherDisplay:10.37,2013-03-23 11:40:00,
2013-03-23 07:45:00,29.5,25.5,29.80,West,271,4.7,8.1,85,0.00,-SN,BKN,0.00,0.0,WeatherDisplay:10.37,2013-03-23 11:45:00,
2013-03-23 07:50:00,29.5,25.2,29.80,WSW,258,4.7,6.9,84,0.00,-SN,BKN,0.00,0.0,WeatherDisplay:10.37,2013-03-23 11:50:00,
2013-03-23 07:55:00,29.7,25.7,29.81,WSW,247,3.4,5.5,85,0.00,-SN,BKN,0.00,0.0,WeatherDisplay:10.37,2013-03-23 11:55:00,
2013-03-23 08:00:00,29.5,25.2,29.81,WSW,249,5.9,9.2,84,0.00,-SN,BKN,0.00,0.0,WeatherDisplay:10.37,2013-03-23 12:00:00,
2013-03-23 08:05:00,30.0,25.8,29.81,West,272,4.2,5.8,84,0.00,-SN,BKN,0.00,0.0,WeatherDisplay:10.37,2013-03-23 12:05:00,
2013-03-23 08:10:00,29.7,25.7,29.81,WNW,285,5.5,8.1,85,0.00,-SN,BKN,0.00,0.0,WeatherDisplay:10.37,2013-03-23 12:10:00,
2013-03-23 08:15:00,29.8,25.6,29.81,SW,232,5.3,8.1,84,0.00,-SN,BKN,0.00,114.1,WeatherDisplay:10.37,2013-03-23 12:15:00,
2013-03-23 08:20:00,30.4,26.1,29.81,SW,232,2.7,4.6,84,0.00,BKN,,0.00,151.2,WeatherDisplay:10.37,2013-03-23 12:20:00,
2013-03-23 08:25:00,30.4,26.1,29.81,WSW,238,4.3,6.9,84,0.00,BKN,,0.00,153.1,WeatherDisplay:10.37,2013-03-23 12:25:00,
2013-03-23 08:30:00,30.0,25.8,29.80,West,262,5.4,8.1,84,0.00,BKN,,0.00,176.9,WeatherDisplay:10.37,2013-03-23 12:30:00,
2013-03-23 08:35:00,30.0,26.1,29.80,West,274,4.9,8.1,85,0.00,BKN,,0.00,172.1,WeatherDisplay:10.37,2013-03-23 12:35:00,
2013-03-23 08:40:00,30.6,26.3,29.80,SSW,198,4.3,6.7,84,0.00,BKN,,0.00,159.8,WeatherDisplay:10.37,2013-03-23 12:40:00,
2013-03-23 08:45:00,30.4,26.1,29.80,SW,214,4.8,6.9,84,0.00,BKN,,0.00,164.5,WeatherDisplay:10.37,2013-03-23 12:45:00,
2013-03-23 08:50:00,30.4,26.1,29.80,West,275,4.9,6.9,84,0.00,BKN,,0.00,217.8,WeatherDisplay:10.37,2013-03-23 12:50:00,
2013-03-23 08:55:00,30.6,26.3,29.80,SW,221,5.1,8.1,84,0.00,BKN,,0.00,227.3,WeatherDisplay:10.37,2013-03-23 12:55:00,
2013-03-23 09:00:00,30.6,26.0,29.81,West,259,6.4,9.2,83,0.00,BKN,,0.00,206.4,WeatherDisplay:10.37,2013-03-23 13:00:00,
2013-03-23 09:05:00,32.0,27.1,29.81,WSW,252,4.3,5.8,82,0.00,BKN,,0.00,255.8,WeatherDisplay:10.37,2013-03-23 13:05:00,
2013-03-23 09:10:00,32.0,27.4,29.80,WNW,294,4.5,5.8,83,0.00,BKN,,0.00,230.1,WeatherDisplay:10.37,2013-03-23 13:10:00,
2013-03-23 09:15:00,32.4,27.5,29.80,SW,229,3.4,6.9,82,0.00,BKN,,0.00,227.3,WeatherDisplay:10.37,2013-03-23 13:15:00,
2013-03-23 09:20:00,32.4,27.2,29.81,West,270,5.4,8.1,81,0.00,BKN,,0.00,296.7,WeatherDisplay:10.37,2013-03-23 13:20:00,
2013-03-23 09:25:00,32.5,27.1,29.80,SW,229,4.2,6.9,80,0.00,BKN,,0.00,288.2,WeatherDisplay:10.37,2013-03-23 13:25:00,
2013-03-23 09:30:00,32.2,27.0,29.80,WSW,247,5.2,11.5,81,0.00,BKN,,0.00,311.0,WeatherDisplay:10.37,2013-03-23 13:30:00,
2013-03-23 09:35:00,32.2,26.7,29.81,SW,236,4.9,6.9,80,0.00,BKN,,0.00,292.9,WeatherDisplay:10.37,2013-03-23 13:35:00,
2013-03-23 09:40:00,32.5,26.7,29.81,West,262,4.8,11.5,79,0.00,BKN,,0.00,232.0,WeatherDisplay:10.37,2013-03-23 13:40:00,
2013-03-23 09:45:00,32.7,26.6,29.81,West,274,4.6,8.1,78,0.00,BKN,,0.00,196.9,WeatherDisplay:10.37,2013-03-23 13:45:00,
2013-03-23 09:50:00,32.7,26.3,29.81,West,263,6.4,10.4,77,0.00,BKN,,0.00,288.2,WeatherDisplay:10.37,2013-03-23 13:50:00,
2013-03-23 09:55:00,33.3,27.1,29.81,WNW,292,5.7,7.6,78,0.00,BKN,,0.00,290.1,WeatherDisplay:10.37,2013-03-23 13:55:00,
2013-03-23 10:00:00,33.3,26.5,29.81,WNW,289,8.7,15.0,76,0.00,BKN,,0.00,243.5,WeatherDisplay:10.37,2013-03-23 14:00:00,
2013-03-23 10:05:00,33.4,26.7,29.81,NNW,330,6.3,13.5,76,0.00,BKN,,0.00,373.7,WeatherDisplay:10.37,2013-03-23 14:05:00,
2013-03-23 10:10:00,33.1,26.0,29.81,WSW,255,7.9,13.8,75,0.00,BKN,,0.00,264.4,WeatherDisplay:10.37,2013-03-23 14:10:00,
2013-03-23 10:15:00,33.4,26.7,29.81,WNW,300,7.3,10.4,76,0.00,BKN,,0.00,315.7,WeatherDisplay:10.37,2013-03-23 14:15:00,
2013-03-23 10:20:00,33.1,26.0,29.81,WSW,245,7.0,11.5,75,0.00,BKN,,0.00,311.0,WeatherDisplay:10.37,2013-03-23 14:20:00,
2013-03-23 10:25:00,33.6,26.2,29.81,WNW,297,5.7,8.1,74,0.00,BKN,,0.00,436.5,WeatherDisplay:10.37,2013-03-23 14:25:00,
2013-03-23 10:30:00,33.6,25.9,29.81,NW,309,7.9,10.5,73,0.00,BKN,,0.00,425.1,WeatherDisplay:10.37,2013-03-23 14:30:00,
2013-03-23 10:35:00,33.4,26.0,29.81,NW,318,6.7,10.2,74,0.00,BKN,,0.00,243.5,WeatherDisplay:10.37,2013-03-23 14:35:00,
2013-03-23 10:40:00,33.4,26.4,29.82,NW,311,5.5,10.4,75,0.00,BKN,,0.00,251.1,WeatherDisplay:10.37,2013-03-23 14:40:00,
2013-03-23 10:45:00,33.6,26.5,29.82,WNW,283,7.6,10.4,75,0.00,BKN,,0.00,259.6,WeatherDisplay:10.37,2013-03-23 14:45:00,
2013-03-23 10:50:00,33.6,26.2,29.82,WNW,282,8.1,13.8,74,0.00,OVC,BKN,0.00,259.6,WeatherDisplay:10.37,2013-03-23 14:50:00,
2013-03-23 10:55:00,33.4,26.7,29.83,SW,221,6.2,8.1,76,0.00,OVC,BKN,0.00,272.0,WeatherDisplay:10.37,2013-03-23 14:55:00,
2013-03-23 11:00:00,33.4,27.0,29.82,WSW,245,5.4,11.0,77,0.00,OVC,BKN,0.00,352.8,WeatherDisplay:10.37,2013-03-23 15:00:00,
2013-03-23 11:06:00,33.3,26.5,29.83,West,263,6.9,11.5,76,0.00,BKN,,0.00,408.9,WeatherDisplay:10.37,2013-03-23 15:06:00,
2013-03-23 11:11:00,33.3,26.8,29.83,West,270,5.4,8.1,77,0.00,BKN,,0.00,359.5,WeatherDisplay:10.37,2013-03-23 15:11:00,
2013-03-23 11:16:00,34.0,27.5,29.83,West,280,4.7,6.9,77,0.00,BKN,,0.00,678.1,WeatherDisplay:10.37,2013-03-23 15:16:00,
2013-03-23 11:21:00,34.3,27.6,29.83,West,260,5.8,11.6,76,0.00,BKN,,0.00,475.5,WeatherDisplay:10.37,2013-03-23 15:21:00,
2013-03-23 11:26:00,34.0,27.2,29.83,West,263,6.7,9.2,76,0.00,BKN,,0.00,427.0,WeatherDisplay:10.37,2013-03-23 15:26:00,
2013-03-23 11:31:00,34.2,27.1,29.83,West,264,7.5,12.7,75,0.00,OVC,BKN,0.00,459.3,WeatherDisplay:10.37,2013-03-23 15:31:00,
2013-03-23 11:36:00,34.3,27.2,29.83,West,276,8.4,12.7,75,0.00,OVC,BKN,0.00,951.0,WeatherDisplay:10.37,2013-03-23 15:36:00,
2013-03-23 11:41:00,35.6,27.5,29.83,NW,312,6.1,9.2,72,0.00,OVC,BKN,0.00,559.2,WeatherDisplay:10.37,2013-03-23 15:41:00,
2013-03-23 11:47:00,35.2,25.0,29.83,WNW,288,8.2,11.5,66,0.00,OVC,BKN,0.00,626.7,WeatherDisplay:10.37,2013-03-23 15:47:00,
2013-03-23 11:52:00,35.1,24.8,29.83,NW,313,6.0,13.8,66,0.00,OVC,BKN,0.00,412.7,WeatherDisplay:10.37,2013-03-23 15:52:00,
2013-03-23 11:57:00,35.2,24.6,29.83,West,278,7.9,13.8,65,0.00,OVC,BKN,0.00,951.0,WeatherDisplay:10.37,2013-03-23 15:57:00,
2013-03-23 12:02:00,36.9,25.8,29.83,WNW,286,7.9,9.1,64,0.00,BKN,,0.00,951.0,WeatherDisplay:10.37,2013-03-23 16:02:00,
2013-03-23 12:08:00,35.8,23.6,29.84,WNW,283,7.8,13.8,61,0.00,BKN,,0.00,515.4,WeatherDisplay:10.37,2013-03-23 16:08:00,
2013-03-23 12:13:00,35.4,24.1,29.84,WNW,300,10.0,13.8,63,0.00,BKN,,0.00,422.2,WeatherDisplay:10.37,2013-03-23 16:13:00,
2013-03-23 12:18:00,35.8,24.0,29.84,WSW,239,6.4,13.8,62,0.00,BKN,,0.00,496.4,WeatherDisplay:10.37,2013-03-23 16:18:00,
2013-03-23 12:23:00,35.8,23.6,29.84,WNW,291,8.9,10.4,61,0.00,BKN,,0.00,485.0,WeatherDisplay:10.37,2013-03-23 16:23:00,
2013-03-23 12:28:00,35.2,23.5,29.84,NW,317,8.0,16.1,62,0.00,BKN,,0.00,568.7,WeatherDisplay:10.37,2013-03-23 16:28:00,
2013-03-23 12:33:00,36.0,24.2,29.84,West,271,8.0,8.0,62,0.00,BKN,,0.00,450.8,WeatherDisplay:10.37,2013-03-23 16:33:00,
2013-03-23 12:38:00,36.3,24.1,29.84,WNW,288,5.8,9.2,61,0.00,BKN,,0.00,468.8,WeatherDisplay:10.37,2013-03-23 16:38:00,
2013-03-23 12:43:00,35.4,23.3,29.84,SW,236,5.3,9.2,61,0.00,BKN,,0.00,471.7,WeatherDisplay:10.37,2013-03-23 16:43:00,
2013-03-23 12:48:00,35.8,23.2,29.84,West,279,7.9,12.7,60,0.00,BKN,,0.00,499.3,WeatherDisplay:10.37,2013-03-23 16:48:00,
2013-03-23 12:53:00,36.0,23.8,29.84,SW,219,6.1,10.4,61,0.00,BKN,,0.00,404.2,WeatherDisplay:10.37,2013-03-23 16:53:00,
2013-03-23 12:58:00,35.6,22.7,29.84,WNW,289,6.7,11.5,59,0.00,BKN,,0.00,431.8,WeatherDisplay:10.37,2013-03-23 16:58:00,
2013-03-23 13:03:00,36.1,23.2,29.84,WSW,249,5.8,10.4,59,0.00,BKN,,0.00,447.9,WeatherDisplay:10.37,2013-03-23 17:03:00,
2013-03-23 13:08:00,35.4,23.3,29.84,WNW,294,10.3,16.1,61,0.00,BKN,,0.00,457.4,WeatherDisplay:10.37,2013-03-23 17:08:00,
2013-03-23 13:13:00,35.6,23.1,29.84,WNW,288,8.4,11.5,60,0.00,BKN,,0.00,454.6,WeatherDisplay:10.37,2013-03-23 17:13:00,
2013-03-23 13:18:00,35.8,24.0,29.84,WSW,245,7.2,10.4,62,0.00,BKN,,0.00,452.7,WeatherDisplay:10.37,2013-03-23 17:18:00,
2013-03-23 13:23:00,36.0,23.4,29.84,NW,314,10.4,16.1,60,0.00,BKN,,0.00,401.3,WeatherDisplay:10.37,2013-03-23 17:23:00,
2013-03-23 13:28:00,35.4,22.9,29.84,NW,309,10.0,11.5,60,0.00,BKN,,0.00,383.3,WeatherDisplay:10.37,2013-03-23 17:28:00,
2013-03-23 13:33:00,35.8,24.0,29.84,WNW,301,8.7,12.0,62,0.00,BKN,,0.00,450.8,WeatherDisplay:10.37,2013-03-23 17:33:00,
2013-03-23 13:38:00,35.8,22.4,29.84,SSW,206,6.8,10.4,58,0.00,BKN,,0.00,496.4,WeatherDisplay:10.37,2013-03-23 17:38:00,
2013-03-23 13:43:00,35.8,22.4,29.84,West,275,9.5,13.8,58,0.00,BKN,,0.00,459.3,WeatherDisplay:10.37,2013-03-23 17:43:00,
2013-03-23 13:48:00,36.0,23.0,29.84,NNW,333,7.2,11.5,59,0.00,BKN,,0.00,346.2,WeatherDisplay:10.37,2013-03-23 17:48:00,
2013-03-23 13:53:00,35.4,22.5,29.84,West,276,9.1,13.8,59,0.00,BKN,,0.00,362.3,WeatherDisplay:10.37,2013-03-23 17:53:00,
2013-03-23 13:58:00,35.4,22.5,29.84,West,278,9.1,13.8,59,0.00,BKN,,0.00,441.3,WeatherDisplay:10.37,2013-03-23 17:58:00,
2013-03-23 14:03:00,36.0,22.6,29.84,West,274,5.7,10.4,58,0.00,BKN,,0.00,508.8,WeatherDisplay:10.37,2013-03-23 18:03:00,
2013-03-23 14:08:00,36.1,23.2,29.84,West,266,8.0,12.7,59,0.00,BKN,,0.00,420.3,WeatherDisplay:10.37,2013-03-23 18:08:00,
2013-03-23 14:13:00,36.3,22.9,29.83,WNW,294,10.4,16.1,58,0.00,BKN,,0.00,508.8,WeatherDisplay:10.37,2013-03-23 18:13:00,
2013-03-23 14:18:00,36.1,21.9,29.83,West,260,9.6,15.0,56,0.00,BKN,,0.00,573.5,WeatherDisplay:10.37,2013-03-23 18:18:00,
2013-03-23 14:23:00,36.5,22.7,29.83,WNW,284,9.9,15.0,57,0.00,BKN,,0.00,487.9,WeatherDisplay:10.37,2013-03-23 18:23:00,
2013-03-23 14:28:00,37.0,22.4,29.83,WNW,295,9.5,15.0,55,0.00,BKN,,0.00,636.2,WeatherDisplay:10.37,2013-03-23 18:28:00,
2013-03-23 14:33:00,38.1,23.8,29.83,WSW,254,7.1,10.4,56,0.00,BKN,,0.00,563.9,WeatherDisplay:10.37,2013-03-23 18:33:00,
2013-03-23 14:38:00,37.2,22.9,29.83,WSW,238,6.8,9.2,56,0.00,BKN,,0.00,431.8,WeatherDisplay:10.37,2013-03-23 18:38:00,
2013-03-23 14:43:00,36.7,22.4,29.83,WNW,299,9.8,18.4,56,0.00,BKN,,0.00,441.3,WeatherDisplay:10.37,2013-03-23 18:43:00,
2013-03-23 14:48:00,37.0,22.8,29.83,WNW,284,6.6,16.1,56,0.00,BKN,,0.00,389.9,WeatherDisplay:10.37,2013-03-23 18:48:00,
2013-03-23 14:53:00,37.4,23.5,29.83,WNW,288,6.5,10.4,57,0.00,BKN,,0.00,380.4,WeatherDisplay:10.37,2013-03-23 18:53:00,
2013-03-23 14:58:00,36.5,22.3,29.83,WNW,295,12.8,15.0,56,0.00,BKN,,0.00,309.1,WeatherDisplay:10.37,2013-03-23 18:58:00,
2013-03-23 15:03:00,36.7,22.9,29.83,SW,226,8.1,9.2,57,0.00,BKN,,0.00,315.7,WeatherDisplay:10.37,2013-03-23 19:03:00,
2013-03-23 15:08:00,36.9,23.0,29.83,WNW,288,7.2,10.4,57,0.00,BKN,,0.00,357.6,WeatherDisplay:10.37,2013-03-23 19:08:00,
2013-03-23 15:13:00,37.0,22.8,29.83,WNW,296,8.8,13.8,56,0.00,BKN,,0.00,346.2,WeatherDisplay:10.37,2013-03-23 19:13:00,
2013-03-23 15:18:00,37.2,22.5,29.82,WNW,292,6.7,13.8,55,0.00,BKN,,0.00,385.2,WeatherDisplay:10.37,2013-03-23 19:18:00,
2013-03-23 15:23:00,37.2,22.1,29.83,NW,309,8.9,17.4,54,0.00,BKN,,0.00,412.7,WeatherDisplay:10.37,2013-03-23 19:23:00,
2013-03-23 15:28:00,36.7,22.0,29.83,SW,222,7.0,13.8,55,0.00,BKN,,0.00,325.2,WeatherDisplay:10.37,2013-03-23 19:28:00,
2013-03-23 15:33:00,37.4,23.5,29.83,WNW,297,9.6,13.8,57,0.00,BKN,,0.00,427.0,WeatherDisplay:10.37,2013-03-23 19:33:00,
2013-03-23 15:38:00,37.2,23.4,29.83,SSE,168,6.6,13.8,57,0.00,BKN,,0.00,777.9,WeatherDisplay:10.37,2013-03-23 19:38:00,
2013-03-23 15:43:00,36.9,22.6,29.83,West,267,8.1,18.4,56,0.00,BKN,,0.00,367.1,WeatherDisplay:10.37,2013-03-23 19:43:00,
2013-03-23 15:48:00,37.0,22.8,29.83,WNW,286,12.1,15.0,56,0.00,BKN,,0.00,443.2,WeatherDisplay:10.37,2013-03-23 19:48:00,
2013-03-23 15:53:00,37.9,23.6,29.83,West,281,10.6,15.0,56,0.00,BKN,,0.00,422.2,WeatherDisplay:10.37,2013-03-23 19:53:00,
2013-03-23 15:59:00,37.6,22.9,29.83,WNW,293,9.3,11.5,55,0.00,BKN,,0.00,348.1,WeatherDisplay:10.37,2013-03-23 19:59:00,
2013-03-23 16:04:00,38.3,23.1,29.83,WNW,294,9.8,16.1,54,0.00,BKN,,0.00,367.1,WeatherDisplay:10.37,2013-03-23 20:04:00,
2013-03-23 16:09:00,38.5,23.3,29.83,WNW,286,10.5,16.1,54,0.00,BKN,,0.00,951.0,WeatherDisplay:10.37,2013-03-23 20:09:00,
2013-03-23 16:14:00,38.1,22.5,29.83,WNW,284,7.5,13.8,53,0.00,BKN,,0.00,728.5,WeatherDisplay:10.37,2013-03-23 20:14:00,
2013-03-23 16:19:00,38.5,22.8,29.83,WNW,298,10.6,16.1,53,0.00,BKN,,0.00,487.9,WeatherDisplay:10.37,2013-03-23 20:19:00,
2013-03-23 16:24:00,39.0,23.3,29.83,WNW,294,10.4,14.6,53,0.00,BKN,,0.00,275.8,WeatherDisplay:10.37,2013-03-23 20:24:00,
2013-03-23 16:29:00,38.1,22.9,29.83,WSW,247,9.0,13.8,54,0.00,BKN,,0.00,415.6,WeatherDisplay:10.37,2013-03-23 20:29:00,
2013-03-23 16:34:00,38.5,22.8,29.83,West,271,8.9,12.7,53,0.00,BKN,,0.00,583.0,WeatherDisplay:10.37,2013-03-23 20:34:00,
2013-03-23 16:39:00,37.6,22.0,29.83,WSW,256,8.7,13.8,53,0.00,BKN,,0.00,290.1,WeatherDisplay:10.37,2013-03-23 20:39:00,
2013-03-23 16:44:00,39.0,23.8,29.83,WSW,250,7.6,13.8,54,0.00,BKN,,0.00,733.2,WeatherDisplay:10.37,2013-03-23 20:44:00,
2013-03-23 16:49:00,38.3,22.2,29.83,WNW,289,10.7,13.8,52,0.00,BKN,,0.00,234.9,WeatherDisplay:10.37,2013-03-23 20:49:00,
2013-03-23 16:54:00,37.9,23.2,29.83,West,276,7.2,9.2,55,0.00,BKN,,0.00,272.0,WeatherDisplay:10.37,2013-03-23 20:54:00,
2013-03-23 16:59:00,38.8,23.2,29.83,West,265,7.3,11.5,53,0.00,BKN,,0.00,394.7,WeatherDisplay:10.37,2013-03-23 20:59:00,
2013-03-23 17:04:00,37.9,22.8,29.83,West,279,7.1,13.8,54,0.00,BKN,,0.00,543.0,WeatherDisplay:10.37,2013-03-23 21:04:00,
2013-03-23 17:09:00,38.1,22.9,29.84,NW,309,11.6,17.3,54,0.00,BKN,,0.00,190.2,WeatherDisplay:10.37,2013-03-23 21:09:00,
2013-03-23 17:14:00,37.2,22.1,29.84,WNW,296,12.8,19.6,54,0.00,BKN,,0.00,209.2,WeatherDisplay:10.37,2013-03-23 21:14:00,
2013-03-23 17:19:00,37.0,22.4,29.84,NW,318,10.6,19.6,55,0.00,BKN,,0.00,148.4,WeatherDisplay:10.37,2013-03-23 21:19:00,
2013-03-23 17:24:00,37.0,22.4,29.84,West,268,11.3,18.4,55,0.00,BKN,,0.00,292.9,WeatherDisplay:10.37,2013-03-23 21:24:00,
2013-03-23 17:29:00,37.9,23.2,29.84,NW,310,7.4,10.4,55,0.00,BKN,,0.00,375.6,WeatherDisplay:10.37,2013-03-23 21:29:00,
2013-03-23 17:34:00,38.1,22.9,29.84,WNW,286,8.9,15.0,54,0.00,BKN,,0.00,227.3,WeatherDisplay:10.37,2013-03-23 21:34:00,
2013-03-23 17:39:00,38.1,22.9,29.84,WNW,283,7.4,15.0,54,0.00,BKN,,0.00,146.5,WeatherDisplay:10.37,2013-03-23 21:39:00,
2013-03-23 17:44:00,37.4,22.3,29.84,WNW,297,8.7,10.4,54,0.00,BKN,,0.00,90.3,WeatherDisplay:10.37,2013-03-23 21:44:00,
2013-03-23 17:49:00,36.9,22.2,29.84,West,277,7.4,11.5,55,0.00,BKN,,0.00,148.4,WeatherDisplay:10.37,2013-03-23 21:49:00,
2013-03-23 17:54:00,37.2,22.5,29.84,WNW,300,7.0,11.5,55,0.00,BKN,,0.00,146.5,WeatherDisplay:10.37,2013-03-23 21:54:00,
2013-03-23 17:59:00,37.2,22.1,29.84,West,270,9.5,13.8,54,0.00,BKN,,0.00,114.1,WeatherDisplay:10.37,2013-03-23 21:59:00,
2013-03-23 18:04:00,37.0,21.9,29.84,West,280,8.9,16.1,54,0.00,BKN,,0.00,117.9,WeatherDisplay:10.37,2013-03-23 22:04:00,
2013-03-23 18:09:00,37.2,22.1,29.84,WNW,289,12.6,16.1,54,0.00,BKN,,0.00,283.4,WeatherDisplay:10.37,2013-03-23 22:09:00,
2013-03-23 18:14:00,38.1,22.0,29.84,West,278,5.9,10.4,52,0.00,BKN,,0.00,172.1,WeatherDisplay:10.37,2013-03-23 22:14:00,
2013-03-23 18:19:00,37.9,21.9,29.84,WSW,245,9.0,11.5,52,0.00,BKN,,0.00,206.4,WeatherDisplay:10.37,2013-03-23 22:19:00,
2013-03-23 18:24:00,37.6,22.0,29.84,West,274,8.1,10.8,53,0.00,BKN,,0.00,98.0,WeatherDisplay:10.37,2013-03-23 22:24:00,
2013-03-23 18:29:00,37.2,21.6,29.84,WNW,288,6.7,10.7,53,0.00,BKN,,0.00,74.2,WeatherDisplay:10.37,2013-03-23 22:29:00,
2013-03-23 18:34:00,37.6,22.4,29.84,WNW,291,5.4,9.2,54,0.00,BKN,,0.00,78.9,WeatherDisplay:10.37,2013-03-23 22:34:00,
2013-03-23 18:39:00,36.9,21.7,29.85,WNW,294,10.3,15.0,54,0.00,BKN,,0.00,78.9,WeatherDisplay:10.37,2013-03-23 22:39:00,
2013-03-23 18:44:00,36.7,22.0,29.84,WSW,257,6.9,10.4,55,0.00,BKN,,0.00,59.9,WeatherDisplay:10.37,2013-03-23 22:44:00,
2013-03-23 18:49:00,37.0,22.4,29.84,West,268,5.0,6.9,55,0.00,BKN,,0.00,46.6,WeatherDisplay:10.37,2013-03-23 22:49:00,
2013-03-23 18:54:00,36.7,22.0,29.84,West,271,4.7,8.1,55,0.00,BKN,,0.00,35.2,WeatherDisplay:10.37,2013-03-23 22:54:00,
2013-03-23 18:59:00,36.7,22.4,29.84,WNW,296,4.6,5.8,56,0.00,BKN,,0.00,25.7,WeatherDisplay:10.37,2013-03-23 22:59:00,
2013-03-23 19:04:00,36.7,22.4,29.85,WNW,283,3.5,5.8,56,0.00,BKN,,0.00,22.8,WeatherDisplay:10.37,2013-03-23 23:04:00,
2013-03-23 19:09:00,36.7,22.4,29.84,WNW,292,3.5,8.1,56,0.00,BKN,,0.00,16.2,WeatherDisplay:10.37,2013-03-23 23:09:00,
2013-03-23 19:14:00,36.7,22.4,29.85,WNW,300,4.1,8.1,56,0.00,BKN,,0.00,14.3,WeatherDisplay:10.37,2013-03-23 23:14:00,
2013-03-23 19:19:00,36.7,22.9,29.85,WNW,294,5.5,9.2,57,0.00,BKN,,0.00,9.5,WeatherDisplay:10.37,2013-03-23 23:19:00,
2013-03-23 19:24:00,36.5,22.7,29.85,West,279,5.6,9.2,57,0.00,BKN,,0.00,4.8,WeatherDisplay:10.37,2013-03-23 23:24:00,
2013-03-23 19:29:00,36.3,22.9,29.85,WNW,290,7.4,10.4,58,0.00,BKN,,0.00,1.9,WeatherDisplay:10.37,2013-03-23 23:29:00,
2013-03-23 19:34:00,36.3,22.9,29.85,WNW,287,3.7,6.9,58,0.00,BKN,,0.00,1.9,WeatherDisplay:10.37,2013-03-23 23:34:00,
2013-03-23 19:39:00,36.7,23.3,29.85,WNW,288,4.2,5.8,58,0.00,BKN,,0.00,1.9,WeatherDisplay:10.37,2013-03-23 23:39:00,
2013-03-23 19:44:00,36.3,22.9,29.85,West,263,6.6,10.4,58,0.00,BKN,,0.00,0.0,WeatherDisplay:10.37,2013-03-23 23:44:00,
2013-03-23 19:49:00,36.3,22.9,29.85,WSW,237,5.4,5.8,58,0.00,BKN,,0.00,0.0,WeatherDisplay:10.37,2013-03-23 23:49:00,
2013-03-23 19:54:00,36.5,22.7,29.85,West,273,4.6,6.9,57,0.00,BKN,,0.00,0.0,WeatherDisplay:10.37,2013-03-23 23:54:00,
2013-03-23 19:59:00,36.5,23.1,29.85,West,270,4.5,6.9,58,0.00,BKN,,0.00,0.0,WeatherDisplay:10.37,2013-03-23 23:59:00,
2013-03-23 20:04:00,36.5,23.1,29.85,West,266,4.8,6.9,58,0.00,BKN,,0.00,0.0,WeatherDisplay:10.37,2013-03-24 00:04:00,
2013-03-23 20:09:00,36.7,23.3,29.86,West,262,3.7,6.9,58,0.00,BKN,,0.00,0.0,WeatherDisplay:10.37,2013-03-24 00:09:00,
2013-03-23 20:14:00,36.5,24.7,29.87,SSW,213,3.7,6.0,62,0.00,BKN,,0.00,0.0,WeatherDisplay:10.37,2013-03-24 00:14:00,
2013-03-23 20:19:00,35.6,27.1,29.87,SW,233,5.4,6.9,71,0.00,BKN,,0.00,0.0,WeatherDisplay:10.37,2013-03-24 00:19:00,
2013-03-23 20:24:00,35.4,27.6,29.87,SSW,205,5.2,8.1,73,0.00,BKN,,0.00,0.0,WeatherDisplay:10.37,2013-03-24 00:24:00,
2013-03-23 20:29:00,35.4,28.0,29.87,SW,216,4.7,6.9,74,0.00,BKN,,0.00,0.0,WeatherDisplay:10.37,2013-03-24 00:29:00,
2013-03-23 20:34:00,35.4,28.3,29.87,SW,229,3.2,5.8,75,0.00,BKN,,0.00,0.0,WeatherDisplay:10.37,2013-03-24 00:34:00,
2013-03-23 20:39:00,35.4,28.6,29.87,WSW,240,4.2,5.8,76,0.00,BKN,,0.00,0.0,WeatherDisplay:10.37,2013-03-24 00:39:00,
2013-03-23 20:44:00,35.1,28.3,29.87,SW,227,3.5,5.8,76,0.00,BKN,,0.00,0.0,WeatherDisplay:10.37,2013-03-24 00:44:00,
2013-03-23 20:49:00,34.9,28.1,29.87,SW,223,4.6,6.9,76,0.00,BKN,,0.00,0.0,WeatherDisplay:10.37,2013-03-24 00:49:00,
2013-03-23 20:54:00,34.7,27.9,29.87,WSW,245,4.6,8.1,76,0.00,BKN,,0.00,0.0,WeatherDisplay:10.37,2013-03-24 00:54:00,
2013-03-23 20:59:00,34.9,28.4,29.87,SW,219,3.1,4.6,77,0.00,BKN,,0.00,0.0,WeatherDisplay:10.37,2013-03-24 00:59:00,
2013-03-23 21:04:00,35.2,28.8,29.87,SW,236,2.7,4.6,77,0.00,BKN,,0.00,0.0,WeatherDisplay:10.37,2013-03-24 01:04:00,
2013-03-23 21:09:00,35.2,28.8,29.87,WSW,250,3.4,4.6,77,0.00,BKN,,0.00,0.0,WeatherDisplay:10.37,2013-03-24 01:09:00,
2013-03-23 21:14:00,35.2,28.4,29.87,SW,229,2.2,3.5,76,0.00,BKN,,0.00,0.0,WeatherDisplay:10.37,2013-03-24 01:14:00,
2013-03-23 21:19:00,35.2,28.8,29.87,WSW,257,2.7,3.5,77,0.00,BKN,,0.00,0.0,WeatherDisplay:10.37,2013-03-24 01:19:00,
2013-03-23 21:24:00,35.2,28.8,29.87,WSW,252,2.6,4.6,77,0.00,BKN,,0.00,0.0,WeatherDisplay:10.37,2013-03-24 01:24:00,
2013-03-23 21:29:00,34.9,28.4,29.87,SW,234,3.1,5.8,77,0.00,BKN,,0.00,0.0,WeatherDisplay:10.37,2013-03-24 01:29:00,
2013-03-23 21:34:00,34.9,28.4,29.87,West,272,3.0,4.6,77,0.00,BKN,,0.00,0.0,WeatherDisplay:10.37,2013-03-24 01:34:00,
2013-03-23 21:39:00,34.7,28.2,29.87,West,274,2.9,4.9,77,0.00,BKN,,0.00,0.0,WeatherDisplay:10.37,2013-03-24 01:39:00,
2013-03-23 21:44:00,34.7,28.5,29.87,West,278,2.8,4.6,78,0.00,BKN,,0.00,0.0,WeatherDisplay:10.37,2013-03-24 01:44:00,
2013-03-23 21:49:00,34.9,28.7,29.87,WNW,286,1.0,3.5,78,0.00,BKN,,0.00,0.0,WeatherDisplay:10.37,2013-03-24 01:49:00,
2013-03-23 21:54:00,34.9,28.4,29.87,WNW,292,2.5,4.6,77,0.00,BKN,,0.00,0.0,WeatherDisplay:10.37,2013-03-24 01:54:00,
2013-03-23 21:59:00,34.9,28.4,29.87,West,273,1.1,3.5,77,0.00,BKN,,0.00,0.0,WeatherDisplay:10.37,2013-03-24 01:59:00,
2013-03-23 22:04:00,34.9,28.4,29.87,WSW,257,1.5,2.3,77,0.00,BKN,,0.00,0.0,WeatherDisplay:10.37,2013-03-24 02:04:00,
2013-03-23 22:09:00,35.1,28.6,29.87,WSW,258,0.4,2.3,77,0.00,BKN,,0.00,0.0,WeatherDisplay:10.37,2013-03-24 02:09:00,
2013-03-23 22:14:00,34.9,28.1,29.87,WNW,302,2.2,4.6,76,0.00,BKN,,0.00,0.0,WeatherDisplay:10.37,2013-03-24 02:14:00,
2013-03-23 22:19:00,34.7,27.3,29.87,NW,319,3.1,4.6,74,0.00,BKN,,0.00,0.0,WeatherDisplay:10.37,2013-03-24 02:19:00,
2013-03-23 22:24:00,34.5,26.4,29.87,WNW,294,3.1,4.6,72,0.00,BKN,,0.00,0.0,WeatherDisplay:10.37,2013-03-24 02:24:00,
2013-03-23 22:29:00,34.3,25.6,29.87,WNW,300,4.1,6.2,70,0.00,BKN,,0.00,0.0,WeatherDisplay:10.37,2013-03-24 02:29:00,
2013-03-23 22:34:00,34.2,24.7,29.87,West,278,4.9,7.2,68,0.00,BKN,,0.00,0.0,WeatherDisplay:10.37,2013-03-24 02:34:00,
2013-03-23 22:39:00,33.8,24.0,29.87,WNW,288,8.3,10.4,67,0.00,BKN,,0.00,0.0,WeatherDisplay:10.37,2013-03-24 02:39:00,
2013-03-23 22:44:00,33.8,23.6,29.87,West,278,6.3,9.2,66,0.00,BKN,,0.00,0.0,WeatherDisplay:10.37,2013-03-24 02:44:00,
2013-03-23 22:49:00,34.0,23.4,29.87,NW,323,5.2,8.1,65,0.00,BKN,,0.00,0.0,WeatherDisplay:10.37,2013-03-24 02:49:00,
2013-03-23 22:54:00,34.0,23.1,29.87,NW,309,7.3,9.2,64,0.00,BKN,,0.00,0.0,WeatherDisplay:10.37,2013-03-24 02:54:00,
2013-03-23 22:59:00,33.6,22.7,29.87,WNW,284,5.4,8.1,64,0.00,BKN,,0.00,0.0,WeatherDisplay:10.37,2013-03-24 02:59:00,
2013-03-23 23:04:00,33.6,22.7,29.87,WNW,301,8.3,11.5,64,0.00,BKN,,0.00,0.0,WeatherDisplay:10.37,2013-03-24 03:04:00,
2013-03-23 23:09:00,33.4,22.6,29.87,NNW,336,5.8,10.4,64,0.00,BKN,,0.00,0.0,WeatherDisplay:10.37,2013-03-24 03:09:00,
2013-03-23 23:14:00,33.3,22.4,29.87,WNW,284,6.8,8.1,64,0.00,BKN,,0.00,0.0,WeatherDisplay:10.37,2013-03-24 03:14:00,
2013-03-23 23:19:00,33.4,22.6,29.87,WNW,301,3.6,5.8,64,0.00,BKN,,0.00,0.0,WeatherDisplay:10.37,2013-03-24 03:19:00,
2013-03-23 23:24:00,33.4,22.6,29.87,West,270,3.6,4.8,64,0.00,BKN,,0.00,0.0,WeatherDisplay:10.37,2013-03-24 03:24:00,
2013-03-23 23:29:00,32.9,22.0,29.87,NW,313,5.3,8.1,64,0.00,BKN,,0.00,0.0,WeatherDisplay:10.37,2013-03-24 03:29:00,
2013-03-23 23:34:00,32.7,22.2,29.87,WNW,300,4.1,8.1,65,0.00,BKN,,0.00,0.0,WeatherDisplay:10.37,2013-03-24 03:34:00,
2013-03-23 23:39:00,32.5,22.1,29.87,WNW,296,4.9,6.9,65,0.00,BKN,,0.00,0.0,WeatherDisplay:10.37,2013-03-24 03:39:00,
2013-03-23 23:44:00,32.2,22.1,29.87,WNW,299,5.7,9.2,66,0.00,BKN,,0.00,0.0,WeatherDisplay:10.37,2013-03-24 03:44:00,
2013-03-23 23:49:00,32.2,22.1,29.88,WNW,296,4.6,6.9,66,0.00,BKN,,0.00,0.0,WeatherDisplay:10.37,2013-03-24 03:49:00,
2013-03-23 23:54:00,32.2,22.1,29.87,NW,317,4.7,6.9,66,0.00,BKN,,0.00,0.0,WeatherDisplay:10.37,2013-03-24 03:54:00,
2013-03-23 23:59:00,32.0,21.9,29.88,West,281,3.7,8.1,66,0.00,BKN,,0.00,0.0,WeatherDisplay:10.37,2013-03-24 03:59:00,